Location: Newark
(46.3567°N, 6.1428°E)
Time: 08:13:54
(UTC+00:00)

BEESAT 2 - Pass Details

Date: 26 October 2019
Orbit: 493 x 535 km, 64.9° (Epoch: 13 November)

Event Time Altitude Azimuth Distance (km) Brightness Sun altitude
Exits shadow 05:00:25 - 333° (NNW) 2,490 ? -12.2°
Reaches altitude 10° 05:02:27 10° 347° (NNW) 1,799 ? -11.8°
Maximum altitude 05:05:39 22° 39° (NE) 1,199 ? -11.3°
Drops below altitude 10° 05:08:51 10° 92° (E) 1,791 ? -10.7°
Sets 05:11:25 0° 108° (ESE) 2,675 ? -10.3°
